Measurements were made at the meteorological tower in Juelich (50.90 N / 6.40 E) at an altitude of 100 m,
"Instrument: Fast Greenhouse Gas Analyzer (FGGA), Los Gatos Inc.",
Responsible PI: Dr. Marc von Hobe; Forschungszentrum Juelich GmbH; IEK-7; email: m.von.hobe@fz-juelich.de,
NaN or negative numbers are fill values (i.e. no valid measurements were made at that time),
Uncertainties are given as the 1-sigma standard deviation over each 10 minute intervals. In each interval ~600 individual measurements are carried out so that the standard error of the mean is approximately sigma/sqrt(600).,
time_utc,CO2_ppm,stdev_CO2_ppm,CH4_ppm,stdev_CH4_ppm,H2O_ppm,stdev_H2O_ppm
"2016-07-01 00:05:00 000",400.824,1.28723,1.88210,0.00444161,14554.5,111.830
"2016-07-01 00:15:00 000",400.261,1.32333,1.88092,0.00427943,14564.8,122.090
"2016-07-01 00:25:00 000",402.288,1.72691,1.88179,0.00474320,14504.0,128.149
"2016-07-01 00:35:00 000",402.450,1.51345,1.87903,0.00455068,14621.9,130.103
"2016-07-01 00:45:00 000",404.757,2.20965,1.88399,0.00407012,14464.2,108.933
"2016-07-01 00:55:00 000",408.617,1.50916,1.89213,0.00451860,14540.4,117.380
"2016-07-01 01:05:00 000",404.599,2.12090,1.89922,0.00522322,14489.1,117.622
"2016-07-01 01:15:00 000",403.924,1.07982,1.90654,0.00513849,14751.6,127.328
"2016-07-01 01:25:00 000",404.401,1.15481,1.90614,0.00462969,14856.4,104.714
"2016-07-01 01:35:00 000",404.321,1.34023,1.90349,0.00446053,15124.8,129.992
"2016-07-01 01:45:00 000",407.829,2.25496,1.90238,0.00465155,15240.1,119.027
"2016-07-01 01:55:00 000",410.868,1.48515,1.90167,0.00496940,15295.6,126.953
"2016-07-01 02:05:00 000",410.199,1.10229,1.90312,0.00481286,15374.5,134.486
"2016-07-01 02:15:00 000",407.933,1.83283,1.90374,0.00516529,15579.5,143.405
"2016-07-01 02:25:00 000",406.148,1.53839,1.90830,0.00498326,15740.8,117.461
"2016-07-01 02:35:00 000",407.824,1.59845,1.91102,0.00481619,15600.5,112.938
"2016-07-01 02:45:00 000",410.363,1.96033,1.90950,0.00485646,15577.5,116.980
"2016-07-01 02:55:00 000",410.678,2.74617,1.90937,0.00531528,15705.1,119.547
"2016-07-01 03:05:00 000",410.610,2.48661,1.90786,0.00516392,15873.0,127.900
"2016-07-01 03:15:00 000",409.698,2.47659,1.90525,0.00524061,15729.7,201.322
"2016-07-01 03:25:00 000",408.910,2.90267,1.91054,0.00598089,15326.1,155.204
"2016-07-01 03:35:00 000",400.912,3.18404,1.90309,0.00828818,15296.1,132.070
"2016-07-01 03:45:00 000",396.557,1.26004,1.89078,0.00535707,15483.9,109.005
"2016-07-01 03:55:00 000",394.505,1.33335,1.88261,0.00507517,15511.9,117.582
"2016-07-01 04:05:00 000",394.758,1.08979,1.88416,0.00664412,15515.2,189.037
"2016-07-01 04:15:00 000",400.989,3.59829,1.89262,0.00484547,15536.9,176.604
"2016-07-01 04:25:00 000",404.380,1.83727,1.89103,0.00505307,15424.4,176.685
"2016-07-01 04:35:00 000",402.216,1.65862,1.89680,0.00472814,15197.7,129.857
"2016-07-01 04:45:00 000",404.890,1.68150,1.89310,0.00507329,15279.6,109.979
"2016-07-01 04:55:00 000",403.327,1.87466,1.89121,0.00477601,15490.6,252.836
"2016-07-01 05:05:00 000",402.027,1.21212,1.88781,0.00463623,15866.2,200.445
"2016-07-01 05:15:00 000",404.619,1.41853,1.88938,0.00469519,15273.4,197.183
"2016-07-01 05:25:00 000",404.790,1.51876,1.89198,0.00492720,14972.4,166.988
"2016-07-01 05:35:00 000",403.241,1.85645,1.89662,0.00514209,15004.5,124.405
"2016-07-01 05:45:00 000",399.361,1.55260,1.89774,0.00506084,15159.3,118.412
"2016-07-01 05:55:00 000",397.383,0.908265,1.89632,0.00495257,15086.1,211.103
"2016-07-01 06:05:00 000",397.306,0.877281,1.89580,0.00518876,14877.7,180.461
"2016-07-01 06:15:00 000",397.404,0.929571,1.89493,0.00481487,15220.7,110.671
"2016-07-01 06:25:00 000",396.879,0.947028,1.89505,0.00494574,15370.6,188.069
"2016-07-01 06:35:00 000",396.132,1.02928,1.89378,0.00465834,15322.2,112.506
"2016-07-01 06:45:00 000",395.778,0.981061,1.89227,0.00520875,15305.9,119.964
"2016-07-01 06:55:00 000",396.959,1.13438,1.88978,0.00476592,15199.0,115.535
"2016-07-01 07:05:00 000",396.879,0.863615,1.88969,0.00547698,15128.9,140.328
"2016-07-01 07:15:00 000",396.354,1.02230,1.88846,0.00505887,14871.0,146.506
"2016-07-01 07:25:00 000",396.262,0.906121,1.88774,0.00500443,14677.3,124.064
"2016-07-01 07:35:00 000",395.644,0.906875,1.87929,0.00491972,14348.0,173.537
"2016-07-01 07:45:00 000",395.663,0.903573,1.88101,0.00503505,14129.1,129.929
"2016-07-01 07:55:00 000",396.456,0.938565,1.88039,0.00496065,14049.9,136.467
"2016-07-01 08:05:00 000",396.721,0.919288,1.88004,0.00482857,13836.9,137.021
"2016-07-01 08:15:00 000",397.002,1.00287,1.88045,0.00481968,14042.8,114.928
"2016-07-01 08:25:00 000",397.560,1.00752,1.88346,0.00485984,14033.9,128.378
"2016-07-01 08:35:00 000",398.051,0.989218,1.88208,0.00566028,14064.1,164.816
"2016-07-01 08:45:00 000",397.333,0.951032,1.88212,0.00493992,14416.8,125.126
"2016-07-01 08:55:00 000",396.512,0.984004,1.88275,0.00456695,14440.1,106.224
"2016-07-01 09:05:00 000",395.832,0.984521,1.88830,0.00659360,14612.2,152.167
"2016-07-01 09:15:00 000",396.302,1.04049,1.89558,0.00500776,14664.2,108.158
"2016-07-01 09:25:00 000",394.686,1.14603,1.89219,0.00508606,14700.9,111.517
"2016-07-01 09:35:00 000",395.087,1.00994,1.88084,0.00672939,14243.0,383.984
"2016-07-01 09:45:00 000",396.453,1.05980,1.87715,0.00496704,13889.1,115.507
"2016-07-01 09:55:00 000",406.654,7.46542,1.87547,0.00493875,13900.2,127.188
"2016-07-01 10:05:00 000",404.910,5.11080,1.87866,0.00492908,13915.3,264.416
"2016-07-01 10:15:00 000",401.573,5.08667,1.87870,0.00491056,13989.6,206.571
"2016-07-01 10:25:00 000",406.789,3.44623,1.87444,0.00513655,13842.1,134.923
"2016-07-01 10:35:00 000",403.506,3.10466,1.87445,0.00477540,13603.7,244.232
"2016-07-01 10:45:00 000",402.163,5.39326,1.87587,0.00482857,13518.0,137.317
"2016-07-01 10:55:00 000",408.244,6.36043,1.87496,0.00465983,13488.1,149.328
"2016-07-01 11:05:00 000",397.852,1.58120,1.87672,0.00473221,13434.7,109.621
"2016-07-01 11:15:00 000",397.583,1.20608,1.87715,0.00479104,13573.4,145.208
"2016-07-01 11:25:00 000",397.083,1.06125,1.87250,0.00529671,13607.3,164.867
"2016-07-01 11:35:00 000",398.481,1.67585,1.87471,0.00470386,13765.7,159.349
"2016-07-01 11:45:00 000",402.065,3.72564,1.87704,0.00522318,13826.8,150.786
"2016-07-01 11:55:00 000",397.973,1.91229,1.87836,0.00455211,13776.6,132.171
"2016-07-01 12:05:00 000",395.120,1.26006,1.87855,0.00466225,13823.9,108.274
"2016-07-01 12:15:00 000",396.536,1.29820,1.87870,0.00528290,13771.3,172.279
"2016-07-01 12:25:00 000",395.909,1.36678,1.88177,0.00485676,14018.1,154.832
"2016-07-01 12:35:00 000",396.289,1.61358,1.88247,0.00493096,14003.0,131.409
"2016-07-01 12:45:00 000",397.065,1.21285,1.88379,0.00461412,14017.5,103.416
"2016-07-01 12:55:00 000",396.765,1.16340,1.88291,0.00452886,14245.1,160.702
"2016-07-01 13:05:00 000",395.543,1.04476,1.88360,0.00494051,14576.1,140.310
"2016-07-01 13:15:00 000",397.503,1.26970,1.88406,0.00618793,14347.6,169.818
"2016-07-01 13:25:00 000",397.163,1.05262,1.88579,0.00435020,14216.9,131.651
"2016-07-01 13:35:00 000",397.121,0.950709,1.88127,0.00505668,14424.8,190.170
"2016-07-01 13:45:00 000",395.892,0.985537,1.88506,0.00496174,14627.7,115.368
"2016-07-01 13:55:00 000",402.273,3.99237,1.88213,0.00478991,14636.7,152.248
"2016-07-01 14:05:00 000",395.975,1.29427,1.88034,0.00467371,14336.0,106.635
"2016-07-01 14:15:00 000",396.738,1.54083,1.87814,0.00513372,14180.4,125.085
"2016-07-01 14:25:00 000",401.044,5.40958,1.87871,0.00524204,14034.1,125.024
"2016-07-01 14:35:00 000",400.184,2.45942,1.88114,0.00484750,13975.5,112.881
"2016-07-01 14:45:00 000",397.010,1.92676,1.87991,0.00500214,13908.6,128.708
"2016-07-01 14:55:00 000",396.642,1.62198,1.87615,0.00529783,13867.0,168.643
"2016-07-01 15:05:00 000",399.491,3.40234,1.88013,0.00477704,13991.3,112.370
"2016-07-01 15:15:00 000",397.934,2.80953,1.88023,0.00496780,13808.2,121.994
"2016-07-01 15:25:00 000",394.479,2.66170,1.87530,0.00483057,13700.3,178.927
"2016-07-01 15:35:00 000",393.178,1.00460,1.87752,0.00505991,13734.6,174.090
"2016-07-01 15:45:00 000",395.261,3.74583,1.87821,0.00505379,13854.0,175.912
"2016-07-01 15:55:00 000",394.628,3.84111,1.87694,0.00486031,13802.3,112.247
"2016-07-01 16:05:00 000",396.125,3.49733,1.87828,0.00467421,13902.6,131.240
"2016-07-01 16:15:00 000",395.160,3.11576,1.87920,0.00492393,14019.6,138.233
"2016-07-01 16:25:00 000",401.072,3.58095,1.87960,0.00482130,13911.5,112.815
"2016-07-01 16:35:00 000",395.424,3.80260,1.87936,0.00499140,13916.0,134.112
"2016-07-01 16:45:00 000",389.563,1.37976,1.87792,0.00510339,13968.0,128.872
"2016-07-01 16:55:00 000",389.454,2.05844,1.87526,0.00492993,13831.1,105.036
"2016-07-01 17:05:00 000",390.088,0.950545,1.87203,0.00510878,13760.3,99.1416
"2016-07-01 17:15:00 000",390.073,0.832047,1.87163,0.00445053,13893.9,108.632
"2016-07-01 17:25:00 000",390.139,0.808751,1.87511,0.00464593,13927.7,100.584
"2016-07-01 17:35:00 000",390.200,0.884537,1.87296,0.00476594,14022.9,112.028
"2016-07-01 17:45:00 000",390.572,0.838253,1.87680,0.00439484,14013.0,114.413
"2016-07-01 17:55:00 000",392.099,2.79117,1.87391,0.00431604,14159.7,109.453
"2016-07-01 18:05:00 000",390.318,1.47736,1.87542,0.00465948,14087.4,93.4701
"2016-07-01 18:15:00 000",389.452,0.911978,1.87884,0.00472441,14170.7,107.087
"2016-07-01 18:25:00 000",389.121,0.872987,1.88029,0.00474283,14345.9,112.778
"2016-07-01 18:35:00 000",389.082,0.880247,1.88256,0.00516639,14353.0,96.2909
"2016-07-01 18:45:00 000",389.673,0.840555,1.87628,0.00442000,14430.6,89.0108
"2016-07-01 18:55:00 000",389.966,0.808682,1.87683,0.00463824,14488.5,90.5691
"2016-07-01 19:05:00 000",390.189,0.795106,1.87910,0.00487725,14517.4,87.7349
"2016-07-01 19:15:00 000",390.775,0.842686,1.87413,0.00445851,14585.0,87.4173
"2016-07-01 19:25:00 000",391.091,0.867668,1.87748,0.00509724,14626.1,86.8919
"2016-07-01 19:35:00 000",391.703,0.943393,1.88595,0.00496143,14610.5,91.9588
"2016-07-01 19:45:00 000",392.987,0.827980,1.88582,0.00435829,14655.2,87.6795
"2016-07-01 19:55:00 000",393.922,0.824423,1.88674,0.00450987,14776.2,97.8894
"2016-07-01 20:05:00 000",394.198,0.973518,1.88540,0.00538890,14806.8,109.782
"2016-07-01 20:15:00 000",396.705,2.26431,1.88030,0.00461554,14338.5,227.725
"2016-07-01 20:25:00 000",401.703,4.50026,1.87972,0.00462495,13982.2,109.074
"2016-07-01 20:35:00 000",412.375,4.18243,1.88193,0.00535784,13767.7,111.182
"2016-07-01 20:45:00 000",417.118,2.70362,1.88210,0.00485851,13817.6,109.039
"2016-07-01 20:55:00 000",413.954,2.73985,1.88336,0.00451625,13864.0,105.157
"2016-07-01 21:05:00 000",416.364,1.78119,1.88333,0.00508020,13958.6,120.500
"2016-07-01 21:15:00 000",419.883,3.57712,1.88346,0.00470512,13946.9,123.626
"2016-07-01 21:25:00 000",411.038,2.97537,1.87969,0.00566539,13972.3,136.973
"2016-07-01 21:35:00 000",408.423,2.18776,1.87995,0.00527498,14060.8,115.351
"2016-07-01 21:45:00 000",410.748,4.55051,1.88275,0.00535168,14133.1,114.897
"2016-07-01 21:55:00 000",405.282,4.27145,1.88062,0.00555099,14200.4,108.464
"2016-07-01 22:05:00 000",405.090,3.75733,1.87764,0.00544698,14334.0,118.581
"2016-07-01 22:15:00 000",405.334,4.10017,1.87421,0.00509810,14398.5,103.000
"2016-07-01 22:25:00 000",402.023,2.29176,1.87376,0.00493648,14338.2,113.830
"2016-07-01 22:35:00 000",401.032,1.57244,1.87200,0.00553314,14252.4,118.011
"2016-07-01 22:45:00 000",407.172,4.22069,1.87028,0.00496116,14244.4,139.098
"2016-07-01 22:55:00 000",406.714,4.53762,1.87857,0.00504369,14324.2,112.441
"2016-07-01 23:05:00 000",395.921,1.09043,1.87808,0.00517994,14479.0,242.398
"2016-07-01 23:15:00 000",395.862,1.00098,1.87565,0.00500897,15308.6,192.211
"2016-07-01 23:25:00 000",396.303,0.986161,1.87348,0.00496896,15261.3,173.744
"2016-07-01 23:35:00 000",396.605,0.910233,1.88844,0.0105789,14979.6,112.789
"2016-07-01 23:45:00 000",394.078,1.79792,1.89907,0.00641827,14569.7,289.562
"2016-07-01 23:55:00 000",391.372,2.01056,1.90605,0.00597892,13814.1,217.591
"2016-07-02 00:05:00 000",389.784,1.00989,1.90460,0.00478886,13733.4,116.216
"2016-07-02 00:15:00 000",389.375,1.33047,1.90747,0.00478599,13765.6,114.858
"2016-07-02 00:25:00 000",389.730,1.08535,1.91479,0.00946144,13597.1,153.019
"2016-07-02 00:35:00 000",389.047,1.01205,1.90261,0.00838649,13163.5,147.170
"2016-07-02 00:45:00 000",389.931,0.956249,1.89275,0.00458054,12752.2,173.684
"2016-07-02 00:55:00 000",390.838,1.11387,1.89430,0.00479295,12600.8,138.406
"2016-07-02 01:05:00 000",391.763,1.01805,1.88942,0.00527829,11895.4,281.088
"2016-07-02 01:15:00 000",392.388,1.20077,1.88916,0.00534067,11617.1,167.508
"2016-07-02 01:25:00 000",393.228,1.05264,1.89657,0.00606345,11557.9,185.834
"2016-07-02 01:35:00 000",393.462,1.04267,1.90608,0.00787791,11526.1,203.301
"2016-07-02 01:45:00 000",393.684,0.918406,1.90406,0.00865820,11402.0,203.925
"2016-07-02 01:55:00 000",392.829,1.00295,1.88657,0.00611018,11373.1,184.625
"2016-07-02 02:05:00 000",393.350,0.830910,1.88914,0.00577705,11460.9,173.246
"2016-07-02 02:15:00 000",393.448,0.935255,1.88551,0.00492926,11565.2,175.895
"2016-07-02 02:25:00 000",393.916,1.00020,1.88394,0.00486356,11619.0,181.135
"2016-07-02 02:35:00 000",394.589,0.802554,1.88687,0.00566696,11604.0,171.199
"2016-07-02 02:45:00 000",394.858,0.939433,1.89237,0.00534322,11499.6,167.768
"2016-07-02 02:55:00 000",395.508,0.895435,1.89454,0.00476247,11343.4,155.822
"2016-07-02 03:05:00 000",396.368,0.889274,1.89533,0.00467473,11235.3,155.118
"2016-07-02 03:15:00 000",396.722,0.867002,1.89811,0.00449157,11107.3,153.738
"2016-07-02 03:25:00 000",396.965,0.913390,1.90071,0.00475939,11029.5,163.362
"2016-07-02 03:35:00 000",397.217,0.835720,1.90455,0.00456116,10970.8,155.578
"2016-07-02 03:45:00 000",397.645,0.861765,1.90613,0.00436928,10961.7,137.760
"2016-07-02 03:55:00 000",398.370,0.890399,1.90844,0.00440991,10962.6,146.946
"2016-07-02 04:05:00 000",398.756,0.913852,1.90898,0.00479645,10971.0,143.834
"2016-07-02 04:15:00 000",398.341,0.932774,1.90797,0.00446661,11043.5,128.331
"2016-07-02 04:25:00 000",397.940,0.846455,1.90965,0.00434627,11004.1,130.237
"2016-07-02 04:35:00 000",397.744,0.850539,1.90855,0.00440353,11120.0,147.127
"2016-07-02 04:45:00 000",398.298,0.817452,1.90725,0.00429652,11148.7,166.742
"2016-07-02 04:55:00 000",398.452,0.796478,1.91106,0.00441960,10760.0,149.888
"2016-07-02 05:05:00 000",398.307,0.815865,1.91102,0.00434276,10731.6,132.691
"2016-07-02 05:15:00 000",397.809,0.895234,1.91125,0.00443897,10810.8,140.025
"2016-07-02 05:25:00 000",397.606,0.853094,1.91166,0.00457572,10729.4,148.362
"2016-07-02 05:35:00 000",397.577,0.891402,1.91260,0.00479836,10581.0,148.569
"2016-07-02 05:45:00 000",397.792,0.897605,1.91560,0.00477355,10569.4,150.680
"2016-07-02 05:55:00 000",398.239,0.855176,1.91615,0.00478759,10583.3,155.140
"2016-07-02 06:05:00 000",398.329,0.880687,1.91960,0.00501842,10600.0,173.520
"2016-07-02 06:15:00 000",398.642,0.892551,1.92092,0.00493737,10649.5,164.896
"2016-07-02 06:25:00 000",398.714,0.878509,1.92390,0.00501122,10665.5,163.135
"2016-07-02 06:35:00 000",398.038,0.929006,1.92933,0.00513518,10689.8,165.138
"2016-07-02 06:45:00 000",397.679,0.920563,1.92888,0.00549280,10737.3,165.698
"2016-07-02 06:55:00 000",397.502,0.885977,1.92956,0.00592517,10671.3,173.338
"2016-07-02 07:05:00 000",397.511,0.989925,1.92583,0.00610547,10649.3,184.733
"2016-07-02 07:15:00 000",397.496,0.928281,1.92555,0.00574282,10536.8,192.204
"2016-07-02 07:25:00 000",397.468,0.893772,1.92620,0.00552298,10405.8,196.439
"2016-07-02 07:35:00 000",397.043,0.918885,1.92817,0.00582667,10368.0,188.070
"2016-07-02 07:45:00 000",396.262,0.983494,1.92340,0.00656422,10473.4,198.617
"2016-07-02 07:55:00 000",396.220,1.07106,1.91995,0.00587427,10399.4,210.678
"2016-07-02 08:05:00 000",395.599,1.36449,1.92063,0.00600207,10251.9,212.106
"2016-07-02 08:15:00 000",395.839,1.08454,1.92238,0.00672190,9969.24,232.731
"2016-07-02 08:25:00 000",396.156,1.06393,1.92101,0.00575142,9821.79,254.528
"2016-07-02 08:35:00 000",396.396,1.01169,1.92314,0.00594646,9704.22,188.461
"2016-07-02 08:45:00 000",395.941,1.04486,1.92323,0.00597990,9847.94,187.818
"2016-07-02 08:55:00 000",395.984,1.08531,1.92211,0.00553964,9703.01,179.376
"2016-07-02 09:05:00 000",395.855,1.04174,1.91905,0.00508930,9606.48,177.999
"2016-07-02 09:15:00 000",394.847,1.10116,1.92106,0.00765079,9419.80,290.631
"2016-07-02 09:25:00 000",394.714,1.10416,1.91993,0.00599014,9015.29,159.383
"2016-07-02 09:35:00 000",393.694,1.16790,1.91733,0.00675136,8891.00,195.284
"2016-07-02 09:45:00 000",392.836,1.08584,1.91365,0.00524330,8909.89,188.624
"2016-07-02 09:55:00 000",393.565,1.11791,1.90903,0.00852971,8587.74,186.061
"2016-07-02 10:05:00 000",393.764,1.04855,1.90293,0.00511154,8373.75,209.903
"2016-07-02 10:15:00 000",393.075,1.01183,1.90376,0.00487982,8697.40,157.476
"2016-07-02 10:25:00 000",392.125,1.10479,1.90092,0.00565616,8966.98,184.599
"2016-07-02 10:35:00 000",392.202,1.21045,1.89950,0.00458938,8731.46,129.390
"2016-07-02 10:45:00 000",393.587,1.06973,1.89861,0.00466171,8377.19,252.854
"2016-07-02 10:55:00 000",393.009,1.00097,1.90018,0.00435885,8587.40,162.756
"2016-07-02 11:05:00 000",392.407,1.33694,1.90239,0.00434128,8972.72,151.798
"2016-07-02 11:15:00 000",391.608,0.974170,1.90420,0.00433990,9070.19,194.607
"2016-07-02 11:25:00 000",390.915,0.953745,1.90220,0.00388561,8695.68,127.261
"2016-07-02 11:35:00 000",390.297,1.17952,1.90181,0.00505475,8541.39,250.711
"2016-07-02 11:45:00 000",391.967,1.27078,1.90192,0.00622350,7805.96,333.337
"2016-07-02 11:55:00 000",390.018,0.927384,1.89889,0.00725112,8218.32,637.207
"2016-07-02 12:05:00 000",391.415,0.915478,1.89234,0.00431742,9013.52,138.170
"2016-07-02 12:15:00 000",389.708,1.03686,1.89529,0.00636702,9230.34,228.999
"2016-07-02 12:25:00 000",389.217,1.08423,1.88975,0.00494236,10421.9,416.310
"2016-07-02 12:35:00 000",388.475,1.23450,1.89048,0.00506608,10551.0,592.757
"2016-07-02 12:45:00 000",388.892,1.13124,1.89259,0.00565223,9191.20,160.774
"2016-07-02 12:55:00 000",388.312,1.13319,1.89166,0.00415736,9192.65,156.875
"2016-07-02 13:05:00 000",388.949,1.04824,1.89222,0.00436042,8894.87,118.783
"2016-07-02 13:15:00 000",389.312,1.22822,1.89097,0.00455710,8761.77,255.820
"2016-07-02 13:25:00 000",390.247,1.02731,1.89129,0.00464690,8178.95,164.985
"2016-07-02 13:35:00 000",389.279,1.13750,1.88933,0.00428612,8442.53,164.152
"2016-07-02 13:45:00 000",389.746,0.977227,1.89144,0.00418856,8450.88,142.305
"2016-07-02 13:55:00 000",390.398,1.00236,1.88880,0.00453872,8314.02,125.870
"2016-07-02 14:05:00 000",390.413,1.03973,1.88892,0.00479846,8531.31,184.772
"2016-07-02 14:15:00 000",390.297,1.11170,1.89182,0.00681436,8790.07,157.482
"2016-07-02 14:25:00 000",391.310,1.10269,1.88417,0.00450502,8760.55,128.445
"2016-07-02 14:35:00 000",391.648,0.933757,1.88677,0.00650974,9084.01,171.102
"2016-07-02 14:45:00 000",390.999,1.06156,1.89359,0.00708010,9651.16,218.048
"2016-07-02 14:55:00 000",390.799,1.16498,1.88964,0.00454323,10392.2,318.613
"2016-07-02 15:05:00 000",390.122,1.01392,1.88935,0.00480210,11144.8,178.529
"2016-07-02 15:15:00 000",390.368,0.953244,1.89806,0.00606037,10520.3,460.149
"2016-07-02 15:25:00 000",390.458,0.901905,1.89343,0.00507068,9734.57,345.593
"2016-07-02 15:35:00 000",391.249,0.947746,1.89062,0.00511466,8890.39,173.856
"2016-07-02 15:45:00 000",390.662,1.00010,1.88830,0.00476371,8518.49,152.692
"2016-07-02 15:55:00 000",390.460,1.20468,1.89123,0.00522846,8526.57,234.997
"2016-07-02 16:05:00 000",390.333,0.957955,1.89282,0.00476266,8935.09,221.990
"2016-07-02 16:15:00 000",390.472,0.929671,1.89503,0.00459540,9036.47,150.411
"2016-07-02 16:25:00 000",390.375,1.00683,1.89826,0.00515054,9174.16,145.338
"2016-07-02 16:35:00 000",389.441,1.16170,1.90289,0.00758637,9145.92,140.084
"2016-07-02 16:45:00 000",388.770,0.989038,1.91079,0.00731515,9287.89,136.125
"2016-07-02 16:55:00 000",389.422,0.933718,1.90060,0.00526608,9385.35,129.247
"2016-07-02 17:05:00 000",388.043,1.02760,1.89905,0.00505804,9538.38,149.685
"2016-07-02 17:15:00 000",388.975,0.953849,1.89835,0.00451052,9486.02,161.928
"2016-07-02 17:25:00 000",388.381,0.994978,1.89656,0.00453126,9853.79,119.767
"2016-07-02 17:35:00 000",386.855,1.02061,1.90060,0.00590837,9877.88,143.267
"2016-07-02 17:45:00 000",387.564,1.01640,1.91631,0.00865132,9905.00,133.834
"2016-07-02 17:55:00 000",387.081,0.929573,1.90854,0.00624139,9989.35,125.459
"2016-07-02 18:05:00 000",387.268,0.978353,1.91268,0.00609264,10107.5,132.686
"2016-07-02 18:15:00 000",387.214,1.07046,1.91520,0.00988890,10076.6,147.976
"2016-07-02 18:25:00 000",387.387,1.00394,1.91842,0.0124849,10098.9,140.778
"2016-07-02 18:35:00 000",387.264,1.12788,1.89872,0.00455693,9893.73,198.451
"2016-07-02 18:45:00 000",389.132,0.906412,1.89870,0.00452844,9240.37,293.344
"2016-07-02 18:55:00 000",389.663,0.850304,1.90173,0.00553757,8384.47,117.686
"2016-07-02 19:05:00 000",391.241,0.942542,1.91226,0.00649436,8189.13,126.842
"2016-07-02 19:15:00 000",391.271,0.933222,1.90457,0.00779916,8192.30,127.112
"2016-07-02 19:25:00 000",390.581,0.916164,1.89822,0.00457215,8226.11,116.232
"2016-07-02 19:35:00 000",390.095,0.907931,1.89744,0.00463771,8173.76,121.314
"2016-07-02 19:45:00 000",389.752,0.992945,1.89837,0.00510463,8085.05,115.202
"2016-07-02 19:55:00 000",390.819,0.911707,1.89937,0.00475005,8069.50,116.371
"2016-07-02 20:05:00 000",392.834,1.00469,1.90444,0.00450703,7989.94,115.997
"2016-07-02 20:15:00 000",393.056,0.959466,1.91049,0.00478692,7961.25,124.926
"2016-07-02 20:25:00 000",392.507,1.01047,1.91338,0.00555725,7835.41,114.424
"2016-07-02 20:35:00 000",393.570,0.939642,1.91126,0.00495016,7808.05,112.134
"2016-07-02 20:45:00 000",394.639,1.14869,1.91065,0.00522811,7818.45,123.770
"2016-07-02 20:55:00 000",393.086,1.22249,1.91099,0.00682204,7817.51,116.844
"2016-07-02 21:05:00 000",393.854,1.16833,1.91640,0.00573098,7999.35,136.181
"2016-07-02 21:15:00 000",393.613,0.949422,1.91106,0.00506319,8068.91,135.758
"2016-07-02 21:25:00 000",394.289,1.62177,1.92097,0.0106117,8116.46,129.587
"2016-07-02 21:35:00 000",396.770,1.17363,1.94271,0.00768904,8381.33,149.634
"2016-07-02 21:45:00 000",397.440,1.28432,1.94527,0.00980741,8339.54,165.038
"2016-07-02 21:55:00 000",399.582,1.39580,1.97038,0.00641417,8485.58,147.819
"2016-07-02 22:05:00 000",403.045,1.32415,1.97339,0.00721644,8840.85,123.430
"2016-07-02 22:15:00 000",403.586,1.46464,1.96211,0.00511101,8989.31,122.454
"2016-07-02 22:25:00 000",402.871,1.14226,1.95930,0.00477889,8753.75,157.524
"2016-07-02 22:35:00 000",403.082,1.22884,1.95642,0.00513121,8629.23,128.173
"2016-07-02 22:45:00 000",402.448,1.01849,1.95562,0.00496290,8701.42,142.113
"2016-07-02 22:55:00 000",401.401,1.05105,1.95667,0.00530363,8694.33,144.355
"2016-07-02 23:05:00 000",400.938,1.14235,1.95615,0.00507650,8759.79,168.616
"2016-07-02 23:15:00 000",401.362,1.15442,1.94852,0.00643339,8656.80,189.036
"2016-07-02 23:25:00 000",401.631,0.873414,1.95010,0.00580054,8711.85,207.683
"2016-07-02 23:35:00 000",399.743,1.24080,1.95186,0.00579038,8983.81,218.424
"2016-07-02 23:45:00 000",399.886,0.920169,1.95292,0.00624437,9239.43,208.608
"2016-07-02 23:55:00 000",399.823,0.988388,1.95363,0.00611551,9156.09,193.985
"2016-07-03 00:05:00 000",401.222,0.923500,1.94979,0.00681338,9095.28,196.817
"2016-07-03 00:15:00 000",400.783,0.913021,1.95196,0.00583448,9095.58,199.955
"2016-07-03 00:25:00 000",401.074,0.943973,1.95270,0.00624500,9212.10,193.811
"2016-07-03 00:35:00 000",400.590,0.990942,1.95148,0.00562560,9392.98,197.552
"2016-07-03 00:45:00 000",400.873,0.853575,1.95142,0.00520710,9421.75,183.723
"2016-07-03 00:55:00 000",400.804,0.945019,1.94867,0.00608975,9441.96,193.622
"2016-07-03 01:05:00 000",401.489,0.986345,1.95001,0.00534553,9294.79,182.319
"2016-07-03 01:15:00 000",401.757,0.859079,1.95055,0.00566574,9288.79,189.056
"2016-07-03 01:25:00 000",401.312,0.936206,1.94857,0.00594195,9282.35,183.181
"2016-07-03 01:35:00 000",401.778,0.894623,1.94045,0.00580141,9135.42,184.054
"2016-07-03 01:45:00 000",401.417,0.928893,1.93668,0.00531691,9049.02,169.414
"2016-07-03 01:55:00 000",401.620,0.880916,1.94022,0.00627914,8903.85,169.559
"2016-07-03 02:05:00 000",401.848,0.887824,1.94731,0.00514093,9014.90,161.883